Showing default

VSP RF A1, 59135

Orbit data source: Space-Track

VSP RF A1, 59135 is a payload satellite owned by Aerospacelab (BE) in SSO that was launched on Mon, 04 Mar 2024 UTC via an FALCON 9 launch vehicle from the Air Force Western Test Range (AFWTR). Payload-class satellites include a variety of spacecraft equipped with specific instruments for various scientific and technological missions. These include communications satellites like Starlink; space stations such as the ISS; scientific satellites like the Hubble; Earth observation satellites from companies like Planet Labs, Umbra, and HawkEye 360; GPS; miniature CubeSats for education and research; and military/defense satellites.

Loading next visibility...
Identifier
59135, 2024-043AP
Orbit
SSO
Country
Flag of BEBE / BEL
Related business
Manufacturer
Aerospacelab
Mission
Operational Commercial Sigint
Bus & Motor
AEROSP, Unknown motor
Mass
~200 kg wet, ~200 kg dry
Launch date (UTC)
2024-03-04 (2 years ago)
Launch vehicle
FALCON 9
Launch site
Air Force Western Test Range (AFWTR)
Object type
Payload
Rocket body
Debris
Shape & HBR
Box + 2 Pan, 1.0 m
Radar Cross Section
0.963 m², Medium (>0.1 m² and < 1m²)

Expand to show TLE details & history
Last TLE update: 1 day ago

TLE from 1 day ago
0 VSP RF A1
1 59135U 24043AP  25345.83698400  .00003423  00000-0  13200-3 0  9994
2 59135  97.5387 115.5297 0011426 173.4898 186.6492 15.26961435 98407
Epoch: 2025-12-11T20:05Z
TLE epoch observation values (Epoch: 2025-12-11T20:05:15.417Z)
Latitude
0.00006°
Longitude
93.42822°
Altitude
495.789 km
Speed
7.612 km/s
True Right ascension
07h 42m 07s
True Declination
0° 00' 00"
Sunlit
Object was in full shadow at epoch
Visualization orbit readout
Latitude
Unknown
Longitude
Unknown
Altitude
Unknown
Speed
Unknown
Apparent Right ascension
Unknown
Apparent Declination
Unknown
Sunlit
N/A
Visualization observer readout
Local Sidereal Time
03:41:13
Azimuth
Unknown
Elevation
Unknown
Doppler factor
Unknown
Orbital elements
Apogee altitude
489.702 km
Perigee altitude
474.026 km
Semi-major axis
6,860.001 km
Eccentricity
0.00114
Inclination
97.5387°
RAAN
115.5297°
Arg. of periapsis
173.4898°
True anomaly
186.63406°
Mean anomaly
186.6492°
Eccentric anomaly
186.64163°
Mean motion
3.81994 °/min
Orbital period
94.24 mins
BSTAR
0.000132
Loading maneuver chart data...
Computing Atmospheric mass density...
Loading historical data...
Loading historical data...
Loading historical data...
Loading historical data...
Loading historical data...
Loading historical data...
Loading historical data...

Documentation

Showing up to 5 results
|